Wetbulb
47.43 47.39 47.52 47.72 48.53 49.10 49.75 49.51 47.95 47.58 47.46 47.78 47.49 46.83 45.94 45.30 44.36 43.69 44.00 44.63 45.64 45.40 45.18 45.02 45.47 46.18 45.80 46.40 47.35 48.28 48.13 47.24 48.20 42.30 43.13 43.10 42.08 42.35 42.44 42.89 42.85 42.64 42.56
46.24 46.47 47.03 47.65 47.98 48.03 48.28 48.46 47.04 46.87 46.13 46.00 45.64 44.42 43.67 43.25 42.66 42.18 42.34 43.65 44.41 44.07 44.63 44.61 44.82 45.87 44.18 43.83 45.40 45.05 44.10 43.29 45.17 41.91 41.24 40.50 39.59 39.61 39.72 40.43 41.51 40.99 39.43
44.95 45.29 45.20 45.18 45.40 45.45 45.57 45.53 45.88 44.85 44.17 43.04 42.91 42.47 42.09 41.73 41.34 40.78 40.93 41.43 40.90 40.66 40.93 42.62 42.23 42.76 42.61 42.40 42.94 42.74 42.20 41.79 41.21 41.17 37.91 39.16 37.94 38.18 38.28 38.30 38.59 35.36 36.21
43.80 43.96 43.76 43.46 43.74 43.68 43.51 43.31 43.23 42.59 41.67 41.14 41.03 40.75 40.30 39.56 39.16 38.75 38.98 38.30 37.64 37.84 38.01 38.12 40.54 41.30 41.46 41.02 41.26 41.09 41.07 40.33 40.50 39.75 38.28 37.17 37.00 36.97 37.08 34.04 35.18 32.00 31.01
43.07 42.81 43.06 42.60 42.35 42.27 42.04 41.60 41.38 41.07 40.71 40.23 39.18 38.71 38.60 38.69 39.14 37.92 38.27 37.90 38.52 39.74 39.61 39.54 39.74 40.73 42.05 41.59 40.42 39.68 39.84 38.71 37.42 36.93 36.22 36.39 36.00 34.99 33.03 31.37 31.16 28.88 28.67
42.36 42.55 42.76 42.00 41.40 40.90 40.25 39.70 39.33 38.90 38.48 38.19 37.76 37.98 37.50 39.55 42.20 43.52 42.11 40.53 40.82 39.97 38.56 38.24 38.98 40.34 40.88 41.32 40.40 39.94 39.21 37.60 36.34 36.03 35.29 35.10 33.52 31.72 29.48 28.71 27.61 24.87 25.24
41.93 42.01 41.87 41.26 40.45 39.72 39.29 38.44 37.50 36.76 36.30 36.22 36.15 36.71 36.60 36.98 42.09 43.12 43.14 40.56 39.19 37.88 36.58 35.25 35.26 36.10 33.90 32.08 36.82 36.96 37.92 38.80 37.70 35.43 34.02 30.30 28.98 29.38 27.81 26.22 26.31 25.82 24.55
41.26 41.38 41.29 40.46 39.59 38.71 37.90 37.19 35.91 35.01 35.15 34.69 34.79 35.38 35.51 37.08 41.83 43.18 42.60 36.08 34.59 34.03 34.19 33.40 33.06 31.06 29.10 29.81 28.80 28.97 28.50 29.23 29.73 30.50 29.19 28.03 28.61 28.47 28.66 28.53 27.67 25.98 26.26
40.84 41.18 40.98 40.10 38.79 37.78 36.85 35.99 34.83 34.20 33.66 33.70 34.41 34.32 34.03 34.36 40.88 42.19 37.94 33.76 33.67 33.44 32.57 31.94 30.90 27.79 31.76 34.83 29.19 28.86 28.38 29.94 34.52 35.21 35.02 35.61 35.17 34.57 31.82 28.09 25.29 23.57 23.27
40.42 40.97 40.67 40.09 39.25 37.76 36.62 35.09 34.56 34.46 34.23 33.09 33.99 33.34 36.32 35.20 40.68 41.17 38.26 33.93 32.83 32.38 31.54 31.06 34.80 30.25 34.63 35.68 28.29 27.39 26.56 27.15 28.03 27.37 26.78 28.00 27.05 29.37 33.47 26.55 25.85 19.25 21.59
40.35 40.38 39.59 39.38 38.83 37.94 35.64 34.00 34.12 34.02 34.11 35.26 34.76 34.36 34.70 36.83 36.80 40.70 39.72 30.13 30.15 29.64 28.92 27.76 28.97 36.89 36.73 36.14 33.31 26.66 27.14 27.94 29.63 26.26 24.09 23.05 23.85 25.10 25.27 25.49 25.77 21.74 19.21
39.01 38.83 38.42 37.71 38.29 36.82 34.98 34.52 32.87 33.46 34.88 35.15 34.88 34.60 35.04 35.89 38.79 38.85 39.01 35.19 31.90 26.57 26.24 26.99 28.12 35.22 36.98 36.26 34.22 32.22 32.64 30.63 26.38 24.45 23.29 22.84 22.86 23.94 25.32 25.90 26.56 26.17 26.02
37.42 37.06 36.40 35.87 35.83 35.20 34.43 33.46 33.00 33.60 35.17 34.31 33.48 33.45 33.17 33.35 33.59 39.02 39.55 38.29 35.91 28.12 25.51 28.37 31.84 33.66 35.63 34.49 35.31 34.87 34.35 27.35 25.20 23.52 23.14 23.00 23.63 24.49 25.35 25.61 26.01 26.45 25.67
36.36 35.44 34.59 34.27 34.01 33.62 33.37 34.35 34.85 35.00 34.38 33.78 32.97 32.81 33.09 32.07 32.16 32.08 32.70 33.45 36.81 33.22 31.57 27.82 31.14 32.23 34.02 31.24 30.67 30.38 28.45 27.04 25.67 23.74 22.98 23.82 25.16 24.74 25.12 26.21 25.41 25.03 24.09
36.24 34.64 33.77 33.83 35.36 33.80 34.18 35.19 35.56 36.66 36.86 34.47 34.10 34.06 32.78 31.49 31.95 33.98 32.74 30.66 29.32 30.85 28.77 26.29 26.52 26.86 27.30 27.15 26.24 25.44 24.95 26.00 26.41 24.71 23.51 23.71 24.58 25.74 25.77 24.99 24.76 22.90 20.26
37.35 37.28 36.83 36.43 37.17 36.03 35.35 35.00 39.05 38.63 39.28 39.38 38.55 36.19 34.65 37.18 37.38 37.17 36.61 35.74 36.41 36.43 30.16 25.69 24.82 25.54 25.51 26.52 26.76 26.15 24.95 26.01 24.37 24.46 23.14 23.07 23.41 23.58 22.92 22.89 22.49 20.30 20.69
38.61 38.58 37.47 36.65 36.56 35.45 34.50 34.14 33.62 35.20 39.52 39.13 39.37 39.54 38.96 35.72 37.92 37.45 37.18 36.63 36.59 36.68 32.36 30.09 26.54 25.67 26.14 26.64 25.44 24.65 23.86 24.18 23.80 23.78 22.99 21.36 20.92 21.26 24.02 22.96 22.11 22.07 20.70
37.52 39.91 38.07 37.20 37.20 36.43 34.97 34.47 34.27 33.45 32.88 34.26 38.48 38.88 39.35 39.47 38.63 37.63 37.53 36.62 31.44 33.64 30.85 29.78 28.18 28.01 26.84 26.01 25.51 25.41 25.20 24.09 23.35 23.04 21.96 20.01 19.54 19.21 18.02 19.18 19.41 18.63 18.55
34.74 37.08 38.72 38.18 36.93 37.19 35.22 34.25 33.94 33.44 33.24 33.45 32.51 36.15 38.74 39.44 39.51 38.67 38.05 32.80 30.57 28.98 29.09 28.86 28.19 27.60 27.21 26.94 26.46 25.35 24.80 24.30 22.73 20.78 20.50 20.90 19.24 17.71 18.60 19.63 18.44 23.05 20.79
33.93 35.44 37.77 37.31 35.77 35.17 34.52 33.66 33.17 32.99 32.87 32.92 32.55 33.09 33.70 36.69 34.72 33.73 32.97 30.94 29.77 29.11 28.61 28.50 28.32 27.60 27.38 26.03 25.68 26.44 25.73 26.05 25.31 22.55 22.66 21.17 18.36 17.06 18.65 19.15 19.15 17.71 19.03
33.24 33.92 35.76 36.47 35.44 34.69 34.53 33.54 33.53 33.11 32.84 32.82 33.17 33.97 35.96 33.63 33.38 33.33 32.16 30.64 30.28 29.88 28.64 27.64 27.75 28.27 28.77 28.73 27.74 27.33 27.01 26.63 25.55 25.41 23.55 21.10 20.17 18.71 19.71 21.12 21.59 21.25 21.35
32.24 32.49 33.07 33.76 35.44 34.59 34.22 34.40 33.72 33.27 33.14 33.00 33.29 33.56 37.14 35.14 32.76 32.86 32.38 32.05 32.31 32.55 32.00 30.07 29.02 28.99 29.83 29.64 29.20 28.61 27.85 26.05 25.23 25.53 23.38 22.35 21.34 20.85 21.66 21.19 21.36 21.54 22.36
31.03 30.64 31.30 31.71 32.36 34.82 35.29 34.72 33.95 33.58 33.29 33.35 33.52 32.90 33.60 34.40 32.80 31.93 32.55 33.04 32.94 32.58 32.23 30.81 31.19 31.65 31.61 31.06 30.70 28.80 26.25 25.27 26.04 26.37 23.68 22.40 21.57 22.26 22.57 22.07 22.30 22.37 22.17
29.74 30.14 30.73 30.96 31.55 32.21 33.54 34.28 34.14 34.41 33.61 33.33 33.14 33.03 32.44 33.09 33.24 32.83 32.47 32.67 32.69 33.00 32.85 32.46 31.88 31.64 31.12 30.24 30.81 30.90 30.39 29.85 29.64 28.11 27.11 24.20 22.92 24.45 23.05 22.88 23.01 23.08 23.11
30.45 30.49 29.43 29.45 30.26 30.29 32.04 33.56 33.66 33.51 33.29 32.76 32.61 32.47 32.52 32.18 32.32 32.37 32.08 31.77 31.21 31.11 30.42 30.52 31.19 31.20 31.30 29.97 28.19 27.26 27.66 30.30 26.46 25.25 24.30 23.23 22.58 22.78 23.57 22.86 22.81 22.97 22.67
28.56 27.64 28.31 29.28 30.16 30.68 30.93 31.83 32.52 32.50 31.97 31.98 31.67 31.68 31.52 31.19 30.83 30.77 30.01 29.97 29.88 29.87 29.61 28.77 27.37 27.43 27.32 26.46 26.26 26.42 29.49 30.92 30.24 29.77 24.31 22.60 21.78 22.99 23.21 22.15 21.51 21.49 21.12
MSLP
1013.35 1013.28 1013.43 1013.60 1013.66 1013.78 1013.99 1014.16 1014.74 1015.33 1015.65 1015.95 1016.48 1016.63 1016.85 1017.42 1017.95 1018.62 1018.99 1018.86 1018.94 1019.12 1018.98 1018.86 1018.85 1019.03 1018.93 1018.98 1018.97 1018.98 1018.90 1019.05 1019.01 1019.84 1020.21 1020.50 1020.99 1020.97 1021.23 1021.09 1021.23 1021.46 1021.26
1013.28 1013.38 1013.51 1013.54 1013.76 1014.04 1014.23 1014.39 1014.49 1015.29 1015.90 1016.15 1016.52 1016.84 1017.32 1017.86 1018.17 1018.53 1018.84 1019.09 1019.01 1018.96 1018.81 1018.91 1018.92 1018.85 1018.83 1018.98 1019.06 1019.10 1019.18 1019.39 1019.38 1019.73 1020.14 1020.80 1021.09 1021.32 1021.36 1021.47 1021.49 1021.48 1021.60
1013.59 1013.68 1013.95 1014.12 1014.21 1014.41 1014.65 1014.80 1015.09 1015.60 1015.97 1016.38 1016.76 1017.20 1017.70 1018.18 1018.53 1018.75 1018.89 1018.93 1019.00 1018.99 1018.87 1019.07 1018.87 1019.05 1019.11 1018.95 1019.14 1019.25 1019.41 1019.65 1019.62 1019.83 1020.35 1020.73 1021.11 1021.50 1021.63 1021.81 1021.65 1021.86 1021.80
1014.16 1014.12 1014.31 1014.33 1014.46 1014.67 1014.93 1015.14 1015.39 1015.70 1016.13 1016.65 1017.10 1017.54 1017.86 1018.37 1018.60 1018.94 1019.06 1019.11 1019.33 1019.25 1019.30 1019.12 1019.21 1019.12 1019.14 1019.11 1019.13 1019.36 1019.31 1019.70 1019.90 1020.07 1020.29 1020.68 1020.86 1021.22 1021.42 1021.90 1022.11 1022.16 1022.31
1014.38 1014.39 1014.37 1014.39 1014.53 1014.85 1015.18 1015.47 1015.78 1016.17 1016.60 1016.99 1017.39 1017.78 1018.15 1018.37 1018.57 1018.83 1019.03 1019.16 1019.22 1019.42 1019.23 1019.37 1019.17 1019.21 1019.28 1019.17 1019.28 1019.41 1019.44 1019.49 1019.95 1020.23 1020.34 1020.66 1020.88 1021.07 1021.37 1021.96 1022.21 1022.47 1022.68
1014.23 1014.27 1014.22 1014.33 1014.58 1014.90 1015.30 1015.71 1016.11 1016.63 1017.08 1017.40 1017.64 1017.87 1018.18 1018.34 1018.51 1018.66 1018.54 1018.77 1019.06 1019.16 1019.35 1019.40 1019.51 1019.42 1019.43 1019.26 1019.47 1019.65 1019.62 1019.49 1019.95 1020.38 1020.44 1020.56 1020.81 1021.22 1021.67 1021.98 1022.39 1022.97 1023.02
1014.01 1013.90 1013.98 1014.21 1014.46 1014.86 1015.28 1015.84 1016.28 1016.61 1016.93 1017.46 1017.83 1018.00 1018.21 1018.35 1018.40 1018.46 1018.52 1018.64 1018.78 1019.12 1019.37 1019.59 1019.60 1019.74 1019.67 1019.69 1019.82 1019.96 1019.82 1019.92 1019.83 1020.19 1020.54 1020.85 1020.88 1021.09 1021.56 1022.11 1022.40 1022.68 1022.95
1013.47 1013.39 1013.54 1013.87 1014.31 1014.71 1015.18 1015.81 1016.27 1016.59 1016.89 1017.29 1017.76 1018.02 1018.20 1018.21 1018.23 1018.27 1018.42 1018.69 1018.91 1019.13 1019.39 1019.57 1019.74 1019.90 1019.88 1020.07 1020.25 1020.43 1020.53 1020.56 1020.33 1020.42 1020.56 1020.94 1021.11 1021.23 1021.41 1021.75 1022.25 1022.65 1022.99
1012.88 1012.76 1012.84 1013.25 1013.87 1014.46 1014.93 1015.58 1016.13 1016.52 1016.89 1017.08 1017.40 1017.81 1018.01 1018.11 1018.13 1018.20 1018.47 1018.83 1019.08 1019.27 1019.49 1019.68 1019.87 1020.01 1020.03 1020.14 1020.35 1020.63 1020.89 1020.88 1020.69 1020.62 1020.64 1020.72 1021.10 1021.04 1021.47 1021.89 1022.57 1022.93 1023.08
1012.73 1012.47 1012.54 1012.75 1013.27 1013.95 1014.42 1015.17 1015.67 1016.07 1016.51 1016.86 1017.36 1017.62 1017.76 1017.91 1017.95 1018.07 1018.39 1018.77 1019.11 1019.33 1019.53 1019.69 1019.72 1019.99 1020.06 1020.00 1020.50 1020.78 1021.05 1021.03 1021.08 1021.27 1021.23 1021.35 1021.59 1021.31 1021.35 1021.93 1022.37 1023.09 1023.27
1012.15 1012.06 1012.07 1012.16 1012.62 1013.16 1014.06 1014.70 1015.25 1015.89 1016.25 1016.63 1016.99 1017.21 1017.49 1017.70 1017.77 1017.83 1018.12 1018.59 1018.88 1019.21 1019.44 1019.60 1019.61 1019.46 1019.79 1019.76 1020.23 1020.65 1020.86 1020.82 1021.20 1021.48 1021.59 1021.66 1021.84 1021.89 1022.13 1022.25 1022.40 1022.71 1023.07
1011.95 1011.82 1011.84 1011.89 1012.23 1012.87 1013.83 1014.51 1015.02 1015.62 1016.06 1016.42 1016.74 1016.93 1017.13 1017.33 1017.44 1017.62 1017.81 1018.21 1018.56 1018.98 1019.16 1019.25 1019.38 1019.45 1019.53 1019.70 1020.03 1020.46 1020.63 1020.94 1021.32 1021.59 1021.69 1021.78 1021.99 1022.20 1022.22 1022.31 1022.39 1022.55 1022.67
1012.04 1011.71 1011.73 1011.98 1012.25 1012.79 1013.60 1014.23 1014.77 1015.14 1015.51 1015.93 1016.21 1016.42 1016.67 1016.90 1017.09 1017.23 1017.36 1017.62 1018.03 1018.63 1018.67 1018.81 1019.01 1019.26 1019.34 1019.47 1019.75 1020.16 1020.39 1020.81 1021.19 1021.43 1021.49 1021.69 1021.90 1022.02 1022.10 1022.35 1022.42 1022.45 1022.63
1012.04 1011.75 1011.81 1012.03 1012.34 1012.76 1013.30 1013.77 1014.25 1014.67 1014.98 1015.25 1015.56 1015.87 1016.14 1016.40 1016.65 1016.86 1017.02 1017.12 1017.42 1017.89 1018.27 1018.49 1018.64 1018.93 1019.11 1019.32 1019.67 1019.90 1020.22 1020.54 1020.87 1021.12 1021.35 1021.51 1021.79 1022.01 1022.13 1022.15 1022.32 1022.45 1022.68
1011.93 1011.77 1011.79 1011.97 1012.14 1012.45 1012.85 1013.13 1013.48 1013.74 1013.99 1014.40 1014.72 1015.11 1015.44 1015.65 1015.68 1015.85 1016.29 1016.71 1017.07 1017.41 1017.97 1018.38 1018.64 1018.93 1019.14 1019.39 1019.66 1019.89 1020.13 1020.39 1020.65 1020.87 1021.17 1021.43 1021.61 1021.79 1021.90 1022.09 1022.30 1022.56 1022.69
1011.74 1011.57 1011.59 1011.67 1011.82 1012.15 1012.56 1012.87 1012.96 1013.17 1013.38 1013.59 1013.91 1014.30 1014.58 1014.65 1014.92 1015.12 1015.46 1015.93 1016.45 1016.91 1017.52 1018.00 1018.38 1018.66 1018.93 1019.15 1019.40 1019.63 1019.87 1020.01 1020.33 1020.66 1021.02 1021.26 1021.56 1021.80 1021.96 1022.09 1022.24 1022.53 1022.66
1011.63 1011.21 1011.23 1011.28 1011.32 1011.65 1012.01 1012.30 1012.52 1012.70 1012.84 1013.07 1013.30 1013.56 1013.82 1014.18 1014.36 1014.51 1014.76 1015.27 1015.73 1016.26 1016.67 1017.32 1017.82 1018.10 1018.35 1018.61 1018.87 1019.16 1019.43 1019.56 1019.77 1020.15 1020.53 1020.91 1021.21 1021.45 1021.60 1021.77 1021.97 1022.24 1022.41
1011.70 1011.09 1010.80 1010.74 1010.88 1010.99 1011.13 1011.38 1011.80 1012.16 1012.35 1012.39 1012.54 1012.81 1013.09 1013.37 1013.75 1014.00 1014.41 1014.79 1015.21 1015.37 1015.91 1016.47 1016.98 1017.34 1017.67 1017.96 1018.26 1018.53 1018.79 1019.04 1019.35 1019.68 1019.99 1020.35 1020.72 1021.05 1021.33 1021.51 1021.63 1021.79 1021.96
1011.56 1011.00 1010.53 1010.31 1010.30 1010.41 1010.62 1010.83 1011.09 1011.47 1011.72 1011.88 1012.14 1012.24 1012.41 1012.73 1013.07 1013.40 1013.80 1014.10 1014.30 1014.74 1015.13 1015.64 1016.09 1016.53 1016.88 1017.19 1017.46 1017.78 1018.05 1018.40 1018.73 1019.14 1019.40 1019.82 1020.13 1020.58 1020.80 1020.93 1021.11 1021.32 1021.48
1011.22 1010.81 1010.35 1009.96 1009.89 1009.95 1010.07 1010.35 1010.52 1010.78 1011.06 1011.24 1011.43 1011.48 1011.81 1012.25 1012.41 1012.73 1013.13 1013.28 1013.71 1014.07 1014.35 1014.76 1015.18 1015.66 1016.05 1016.43 1016.74 1017.00 1017.32 1017.59 1017.87 1018.29 1018.64 1019.01 1019.40 1019.83 1020.19 1020.37 1020.60 1020.74 1020.74
1011.11 1010.57 1010.11 1009.75 1009.44 1009.48 1009.52 1009.63 1009.88 1010.07 1010.23 1010.41 1010.50 1010.66 1010.92 1011.33 1011.66 1012.01 1012.25 1012.48 1012.82 1013.32 1013.71 1014.13 1014.47 1014.80 1015.15 1015.50 1015.85 1016.14 1016.41 1016.66 1016.97 1017.33 1017.79 1018.27 1018.72 1019.21 1019.38 1019.59 1019.79 1019.92 1020.06
1010.85 1010.36 1009.97 1009.52 1009.22 1008.96 1008.98 1009.03 1009.18 1009.33 1009.46 1009.60 1009.72 1009.85 1010.05 1010.55 1010.90 1011.21 1011.52 1011.75 1012.01 1012.36 1012.74 1013.24 1013.59 1013.85 1014.10 1014.51 1014.82 1015.13 1015.35 1015.66 1015.99 1016.37 1016.87 1017.33 1017.78 1018.26 1018.54 1018.81 1018.99 1019.16 1019.31
1010.48 1010.03 1009.67 1009.29 1008.92 1008.64 1008.34 1008.36 1008.47 1008.56 1008.70 1008.84 1009.00 1009.14 1009.36 1009.67 1010.07 1010.40 1010.71 1011.02 1011.39 1011.70 1012.06 1012.41 1012.68 1012.95 1013.14 1013.47 1013.83 1014.16 1014.48 1014.65 1014.90 1015.38 1015.94 1016.50 1017.03 1017.40 1017.69 1017.96 1018.14 1018.37 1018.47
1009.95 1009.56 1009.18 1008.81 1008.48 1008.24 1007.97 1007.77 1007.76 1007.77 1007.96 1008.12 1008.32 1008.45 1008.66 1008.93 1009.22 1009.52 1009.91 1010.28 1010.65 1011.02 1011.32 1011.59 1011.86 1012.11 1012.40 1012.73 1012.98 1013.22 1013.47 1013.72 1014.00 1014.42 1014.87 1015.50 1016.04 1016.46 1016.89 1017.14 1017.35 1017.50 1017.69
1009.31 1009.00 1008.78 1008.42 1008.09 1007.80 1007.54 1007.25 1007.12 1007.08 1007.21 1007.42 1007.65 1007.89 1008.07 1008.36 1008.67 1008.95 1009.35 1009.72 1010.10 1010.43 1010.72 1011.01 1011.21 1011.43 1011.70 1012.02 1012.36 1012.65 1012.91 1013.19 1013.59 1013.99 1014.45 1014.85 1015.28 1015.69 1016.09 1016.44 1016.69 1016.86 1017.04
1008.72 1008.61 1008.28 1007.93 1007.56 1007.29 1007.05 1006.86 1006.69 1006.63 1006.75 1006.96 1007.14 1007.36 1007.58 1007.86 1008.22 1008.65 1009.04 1009.38 1009.72 1010.03 1010.32 1010.61 1010.88 1011.14 1011.35 1011.66 1011.95 1012.23 1012.47 1012.69 1013.04 1013.49 1014.07 1014.58 1014.96 1015.31 1015.59 1015.84 1016.12 1016.30 1016.44
Wind_Speed
4 3 3 3 4 5 5 6 7 6 5 6 4 5 5 5 3 1 3 4 4 5 3 3 4 3 2 2 2 1 1 1 3 2 2 2 2 3 2 2 3 0 3
3 3 3 3 4 5 6 5 7 6 5 6 5 5 4 3 3 2 3 4 5 5 5 4 5 3 2 0 1 1 1 0 0 2 2 1 2 1 1 2 1 3 3
2 3 3 4 4 4 5 5 5 6 5 5 5 5 4 3 2 0 2 3 3 3 2 3 1 2 2 1 1 1 1 0 1 2 2 2 2 1 1 1 2 3 2
3 5 5 5 5 5 5 6 6 5 6 5 4 4 4 3 3 1 2 2 1 1 1 2 1 0 1 2 1 2 2 2 1 1 2 2 2 2 2 1 1 3 2
5 5 6 5 5 5 5 5 5 5 4 5 5 4 4 4 3 4 2 2 3 3 2 2 1 2 3 2 1 2 2 2 1 2 2 2 2 2 3 2 1 1 1
6 7 5 6 6 6 6 6 6 4 4 4 4 4 4 2 6 8 5 4 4 4 3 2 2 3 3 4 2 1 1 3 2 1 1 2 3 2 2 3 2 1 2
7 7 6 6 6 6 6 6 6 6 5 4 3 3 4 4 6 7 7 3 4 4 4 4 2 2 3 4 6 6 6 5 4 1 2 2 3 5 5 3 2 2 2
7 7 7 7 6 6 7 6 5 4 6 5 4 4 3 4 7 7 4 2 2 2 3 3 2 3 2 4 3 3 3 3 4 3 3 3 2 5 3 3 4 3 1
8 9 8 8 7 7 7 7 4 5 4 4 3 5 5 4 7 6 6 3 3 4 3 3 3 3 5 6 3 3 2 2 4 7 7 7 7 8 6 4 1 2 1
7 8 7 8 9 9 8 8 5 4 4 4 3 3 6 5 7 7 6 3 3 2 2 3 7 5 6 5 3 3 4 3 3 2 3 5 5 2 5 2 3 2 2
6 6 7 8 9 8 7 5 6 5 4 4 4 3 5 5 5 9 8 3 3 3 3 3 4 9 9 6 5 4 4 4 4 3 2 2 2 2 2 2 3 3 3
5 5 6 6 5 6 8 5 6 6 5 5 4 4 3 4 9 10 11 10 8 4 4 4 4 7 9 7 6 6 5 5 3 2 1 1 1 2 2 2 3 3 2
5 5 4 4 5 6 7 7 5 5 5 5 5 4 4 4 4 12 13 13 11 5 3 6 9 9 10 7 8 8 7 4 3 3 3 2 2 2 3 3 2 2 1
6 4 3 5 5 5 4 5 6 6 5 5 5 5 5 4 5 4 4 5 13 8 7 4 6 8 7 5 4 4 2 4 4 2 2 2 2 2 2 2 2 1 0
6 5 4 4 5 5 5 6 6 6 8 7 6 6 6 6 7 12 10 6 4 6 5 2 2 2 3 3 3 3 3 3 3 2 2 2 3 2 2 2 2 1 2
6 4 4 4 4 4 5 4 12 10 15 16 13 10 6 12 11 16 18 18 15 14 4 3 3 4 4 4 5 4 4 6 4 3 3 3 3 3 2 2 1 2 2
9 7 4 5 5 6 5 5 6 5 14 15 16 17 16 10 15 14 15 17 17 14 7 6 5 5 6 5 4 4 4 4 4 4 4 4 4 3 5 3 3 2 2
11 14 6 6 6 6 6 6 5 5 5 5 14 13 16 17 15 13 14 14 6 12 7 7 7 6 6 6 5 5 4 4 4 4 4 4 4 3 2 2 3 4 3
9 7 6 5 5 7 5 6 6 6 6 5 3 8 14 16 16 14 14 8 7 7 7 7 6 6 6 6 6 5 5 5 4 4 4 5 5 4 4 4 4 9 7
8 13 11 5 5 5 5 6 6 6 6 6 6 6 4 9 7 7 8 7 6 7 7 7 6 6 6 6 6 6 5 6 5 5 5 4 4 4 5 5 5 4 4
7 7 11 7 5 5 6 6 6 6 7 7 7 8 14 8 8 8 8 8 9 8 7 6 6 6 6 6 6 6 7 6 6 6 5 5 5 4 5 5 6 6 5
7 7 6 6 6 5 6 7 7 7 7 7 6 7 18 9 7 8 8 8 8 8 7 7 6 7 7 7 7 7 7 7 6 6 5 5 5 5 5 5 5 5 6
7 7 6 6 5 8 7 7 7 7 7 8 7 6 7 8 8 8 8 7 7 7 6 6 6 6 6 6 7 7 7 8 7 7 7 6 6 5 6 6 6 6 6
8 8 7 7 5 6 7 7 7 10 8 7 7 7 7 7 7 8 8 7 7 7 6 6 7 8 6 7 7 7 6 5 5 7 8 6 6 8 6 5 6 7 5
7 6 7 7 6 7 6 7 7 7 7 7 6 6 6 6 6 6 5 5 6 6 6 6 5 7 9 9 7 7 7 12 8 8 5 6 6 8 5 5 5 5 6
4 6 7 6 6 6 6 6 6 5 6 5 5 5 6 6 5 4 4 4 4 4 5 4 5 7 7 6 7 9 12 13 11 13 6 5 5 5 5 5 6 5 5
Wind_Direction
242 237 187 166 145 131 126 135 129 113 115 118 131 131 122 129 102 15 287 289 271 270 265 248 259 251 254 248 255 270 295 321 262 113 97 102 98 123 116 95 94 90 37
242 219 203 155 141 137 137 132 128 138 147 138 133 118 114 131 134 193 271 284 261 267 270 257 258 242 220 343 278 215 189 75 288 141 123 115 90 86 116 124 113 56 36
250 186 170 155 143 142 131 121 118 127 126 121 125 136 145 145 145 100 292 293 289 300 325 275 230 208 206 170 206 187 146 184 92 131 137 137 108 179 130 36 91 62 53
234 186 184 176 171 162 152 146 143 140 136 136 136 141 139 143 128 117 344 322 290 12 40 53 16 62 202 185 170 182 157 184 121 142 147 132 143 165 139 153 142 53 8
222 208 206 181 164 157 153 141 128 136 149 150 143 147 153 157 174 181 195 253 242 224 185 182 145 166 158 156 184 225 204 146 155 171 153 151 168 155 164 148 132 90 33
231 224 203 175 168 167 152 151 146 142 141 144 154 159 178 218 233 236 198 199 229 215 197 153 106 83 98 105 111 149 191 168 188 204 189 183 139 116 120 140 124 129 229
227 216 197 183 177 175 162 158 160 157 142 157 175 184 214 230 245 246 255 216 194 209 189 179 152 74 81 60 71 52 53 78 95 165 183 200 164 169 136 123 154 149 180
232 215 194 183 185 171 160 169 161 154 169 165 195 208 211 233 243 244 241 120 129 133 163 169 159 178 158 135 113 83 47 26 35 76 110 145 116 133 123 152 162 128 100
238 221 199 180 177 174 175 174 173 161 167 174 176 202 208 234 247 213 138 141 163 170 170 187 190 195 222 185 155 150 101 39 70 86 99 113 125 130 132 106 105 102 211
251 231 199 181 180 187 176 174 166 165 170 155 181 210 226 221 227 221 174 161 192 191 199 209 206 199 227 189 175 182 203 196 142 84 54 65 51 56 141 124 147 137 133
271 224 193 183 185 182 164 155 155 162 149 163 188 191 214 211 219 231 197 184 195 190 201 208 226 218 217 190 175 196 221 154 195 151 132 105 85 98 101 113 142 135 137
283 247 221 188 170 156 159 156 153 155 164 179 194 202 205 210 221 231 210 205 199 185 200 206 222 232 210 206 197 211 206 144 146 156 162 177 176 212 207 159 144 136 129
283 258 223 172 157 153 157 165 151 166 172 187 195 201 209 202 209 231 233 217 216 208 202 218 210 221 221 217 211 211 209 154 170 193 204 190 193 209 141 138 117 109 141
275 253 205 179 173 163 152 160 175 182 187 192 197 209 210 202 206 200 230 229 227 217 205 225 207 208 203 182 209 239 172 182 182 193 198 201 139 153 176 161 165 155 216
267 254 218 203 187 176 187 183 189 199 194 196 205 205 200 212 215 207 202 205 200 196 159 140 158 163 186 189 203 216 208 209 200 183 179 196 204 183 180 143 173 151 176
276 244 221 195 188 185 189 206 223 218 213 218 213 204 216 230 227 215 214 215 211 204 160 169 188 194 199 207 208 210 203 217 195 180 190 188 194 187 189 174 147 180 199
285 261 226 216 201 193 192 198 223 228 233 228 230 229 223 221 233 221 213 214 210 207 207 205 210 201 212 211 200 196 207 204 175 188 191 200 196 197 220 194 186 184 214
312 280 241 223 217 210 200 203 199 205 212 220 230 228 233 230 225 224 214 209 205 218 204 202 210 210 209 208 203 207 210 190 195 199 190 191 196 180 172 194 188 189 195
301 297 265 237 219 217 203 199 200 203 212 212 171 225 224 225 223 209 217 215 204 206 203 208 202 201 206 203 205 203 201 205 193 184 192 199 191 175 210 208 206 222 221
291 293 294 248 225 213 202 207 202 205 208 209 206 209 183 207 203 201 210 205 200 215 203 206 202 199 204 202 205 205 203 210 200 194 206 195 187 180 201 199 201 205 220
289 290 286 285 229 220 212 210 214 208 210 209 216 201 194 194 204 208 206 206 207 214 208 206 204 197 201 204 203 204 208 208 202 200 192 194 183 196 200 201 207 208 211
282 278 280 275 279 227 221 219 210 213 214 214 215 207 211 208 206 208 209 209 211 210 206 207 204 203 200 206 206 209 212 209 200 194 194 188 181 193 191 200 203 207 218
277 276 269 265 261 276 246 221 218 215 216 215 212 197 196 207 205 209 210 209 205 206 201 195 212 222 214 211 206 204 208 212 199 189 191 183 184 192 194 200 205 216 214
274 273 273 269 269 262 253 238 224 216 215 213 208 202 196 203 207 206 205 202 202 207 203 205 210 213 208 208 210 211 214 205 181 187 178 174 182 199 191 202 207 214 221
259 281 279 273 267 268 268 249 233 219 214 210 206 203 196 196 200 199 192 189 194 198 198 199 205 210 215 205 200 196 198 201 177 171 171 171 181 183 195 197 204 214 214
275 274 274 268 259 261 258 252 240 218 210 206 198 196 191 188 183 179 177 179 181 186 183 185 197 206 203 206 208 206 214 216 200 195 169 170 172 190 195 203 206 217 223